CW1335 Weather Reports


Display with metric or nautical units.
time (UTC)temp
F
wind
direction
speed
MPH
gust
MPH
rain 1hr
in
rain 24hr
in
rain mn
in
humidity
%
barometer
mb
20260906140108 71 87 2.0 8.0 0.00 0.00 0.00 86 1018.0
20260906134513 68 47 2.0 8.0 0.00 0.01 0.00 91 1018.0
20260906133133 68 60 2.0 5.0 0.00 0.01 0.00 94 1018.1
20260906131614 66 64 2.0 5.0 0.00 0.01 0.00 96 1018.0
20260906130044 65 60 2.0 4.0 0.00 0.01 0.00 97 1018.0
20260906124614 63 184 0.0 0.0 0.00 0.01 0.00 97 1017.9
20260906123057 61 184 0.0 0.0 0.00 0.01 0.00 97 1017.6
20260906121523 59 184 0.0 0.0 0.00 0.01 0.00 97 1017.5
20260906120005 59 184 0.0 0.0 0.00 0.01 0.00 97 1017.3
20260906114601 58 184 0.0 0.0 0.00 0.01 0.00 96 1017.0
20260906113048 58 184 0.0 0.0 0.00 0.01 0.00 96 1016.9
20260906111531 58 184 0.0 0.0 0.00 0.01 0.00 96 1016.6
20260906110118 58 184 0.0 0.0 0.00 0.01 0.00 96 1016.5
20260906104552 58 184 0.0 0.0 0.00 0.01 0.00 96 1016.6
20260906103014 59 184 0.0 0.0 0.00 0.01 0.00 96 1016.5
20260906101621 59 184 0.0 0.0 0.00 0.01 0.00 96 1016.4
20260906100112 59 184 0.0 0.0 0.00 0.01 0.00 96 1016.5
20260906094541 59 184 0.0 0.0 0.00 0.01 0.00 96 1016.4
20260906093013 60 184 0.0 2.0 0.00 0.01 0.00 96 1016.3
20260906091616 60 70 0.0 0.0 0.00 0.01 0.00 96 1016.4
20260906090120 60 70 0.0 0.0 0.00 0.01 0.00 96 1016.2
20260906084549 61 70 0.0 0.0 0.00 0.01 0.00 96 1016.2
20260906083010 60 70 0.0 0.0 0.00 0.01 0.00 97 1016.4
20260906081614 60 70 0.0 0.0 0.00 0.01 0.00 97 1016.3
20260906074519 58 70 0.0 0.0 0.00 0.01 0.00 95 1016.0
20260906073122 59 70 0.0 0.0 0.00 0.01 0.00 95 1016.0
20260906071605 59 70 0.0 0.0 0.00 0.01 0.00 96 1015.9
20260906070050 59 70 0.0 0.0 0.00 0.01 0.00 95 1015.8
20260906064511 60 70 0.0 0.0 0.00 0.01 0.00 95 1016.1
20260906063116 60 70 0.0 0.0 0.00 0.01 0.00 95 1016.0
20260906061558 60 70 0.0 0.0 0.00 0.01 0.00 95 1015.9
20260906060052 60 70 0.0 1.0 0.00 0.01 0.00 95 1015.9
20260906054617 61 70 0.0 2.0 0.00 0.01 0.00 95 1015.9
20260906053100 61 70 0.0 2.0 0.00 0.01 0.00 95 1015.7
20260906051545 61 70 0.0 2.0 0.00 0.01 0.00 94 1015.6
20260906050005 62 70 0.0 1.0 0.00 0.01 0.00 94 1015.6
20260906044546 62 70 0.0 1.0 0.00 0.01 0.01 94 1015.5
20260906043014 63 70 0.0 1.0 0.00 0.01 0.01 93 1015.3
20260906041618 63 70 0.0 1.0 0.00 0.01 0.01 92 1015.3
20260906034524 64 70 0.0 4.0 0.00 0.01 0.01 91 1015.1
20260906033120 64 63 2.0 4.0 0.00 0.01 0.01 92 1014.9
20260906031602 65 84 2.0 4.0 0.00 0.01 0.01 92 1014.9
20260906030022 65 67 1.0 4.0 0.00 0.01 0.01 92 1014.9
20260906024615 65 78 2.0 8.0 0.00 0.01 0.01 93 1015.0
20260906023100 65 80 3.0 7.0 0.00 0.01 0.01 95 1014.9
20260906021556 65 59 0.0 1.0 0.00 0.01 0.01 94 1014.8
20260906020011 66 59 0.0 0.0 0.00 0.01 0.01 93 1014.7
20260906014616 67 59 0.0 0.0 0.00 0.01 0.01 92 1014.6
20260906013049 68 59 0.0 1.0 0.00 0.01 0.01 93 1014.5
20260906011515 68 59 0.0 1.0 0.00 0.01 0.01 92 1014.4
20260906010000 69 59 0.0 0.0 0.00 0.01 0.01 92 1014.3
20260906004600 69 59 0.0 2.0 0.00 0.01 0.01 91 1014.6
20260906003005 69 59 0.0 2.0 0.00 0.01 0.01 90 1014.4
20260906001609 70 59 1.0 3.0 0.00 0.01 0.01 90 1014.5
20260906000055 71 85 4.0 5.0 0.00 0.01 0.01 88 1014.4
20260905234507 71 93 3.0 7.0 0.00 0.01 0.01 88 1014.5
20260905233139 71 71 3.0 6.0 0.00 0.01 0.01 88 1014.5
20260905231557 71 78 2.0 5.0 0.00 0.01 0.01 88 1014.6
20260905230019 72 77 3.0 6.0 0.00 0.01 0.01 88 1014.3
20260905224630 72 90 4.0 9.0 0.00 0.01 0.01 87 1014.4
20260905223106 73 61 4.0 9.0 0.00 0.01 0.01 86 1014.3
20260905221542 73 102 3.0 8.0 0.00 0.01 0.01 87 1014.0
20260905220007 75 69 7.0 10.0 0.00 0.01 0.01 84 1013.7
20260905214602 74 95 3.0 10.0 0.00 0.01 0.01 85 1013.5
20260905213033 75 79 6.0 11.0 0.00 0.01 0.01 84 1013.6
20260905211511 75 82 4.0 8.0 0.00 0.01 0.01 84 1013.9
20260905210115 75 84 6.0 10.0 0.00 0.01 0.01 84 1013.9
20260905204552 75 96 3.0 9.0 0.00 0.01 0.01 86 1013.8
20260905203040 74 76 3.0 9.0 0.00 0.01 0.01 87 1013.9
20260905201508 74 53 3.0 6.0 0.00 0.01 0.01 87 1013.8
20260905200110 74 65 2.0 9.0 0.00 0.01 0.01 87 1013.8
20260905194546 75 84 5.0 10.0 0.00 0.01 0.01 86 1013.7
20260905193013 74 92 3.0 8.0 0.00 0.01 0.01 90 1013.8
20260905191620 74 54 4.0 8.0 0.00 0.01 0.01 89 1014.0
20260905190137 74 80 3.0 7.0 0.00 0.01 0.01 88 1014.0
20260905184546 74 59 2.0 9.0 0.00 0.01 0.01 88 1014.0
20260905183121 74 91 3.0 8.0 0.00 0.01 0.01 87 1014.0
20260905181603 75 57 3.0 7.0 0.00 0.01 0.01 86 1013.9
20260905180047 76 82 4.0 9.0 0.00 0.01 0.01 85 1013.9
20260905174509 76 346 4.0 9.0 0.00 0.01 0.01 86 1013.9
20260905173113 76 71 3.0 9.0 0.00 0.01 0.01 87 1013.8
20260905171552 76 101 2.0 10.0 0.00 0.01 0.01 87 1013.9
20260905170015 75 51 3.0 8.0 0.00 0.01 0.01 87 1013.9
20260905164613 75 360 1.0 10.0 0.00 0.01 0.01 88 1013.9
20260905163103 74 321 1.0 5.0 0.00 0.01 0.01 89 1013.9
20260905161543 74 76 3.0 10.0 0.00 0.01 0.01 88 1013.9
20260905160007 75 117 2.0 5.0 0.00 0.01 0.01 88 1013.9
20260905154605 75 342 1.0 7.0 0.00 0.01 0.01 88 1013.8
20260905153047 74 69 2.0 6.0 0.00 0.01 0.01 89 1013.7
20260905151532 74 111 2.0 8.0 0.00 0.01 0.01 89 1013.6
20260905150118 73 317 2.0 6.0 0.00 0.01 0.01 90 1013.4
20260905144550 73 84 3.0 9.0 0.00 0.07 0.01 91 1013.3
20260905143021 73 69 3.0 8.0 0.01 0.07 0.01 91 1013.0
20260905141631 73 80 4.0 8.0 0.01 0.07 0.01 92 1012.9